Location: Pittman
(37.9557°N, 80.9209°W)
Time: 19:33:32
(UTC+00:00)

Hubble Space Telescope - Visible Passes

Search period start: 10 April 2026 00:00
Search period end: 20 April 2026 00:00
Orbit: 474 x 477 km, 28.5° (Epoch: 10 April)

Date Brightness Start Highest point End Pass type
(mag) Time Alt. Az. Time Alt. Az. Time Alt. Az.
10 Apr 2.3 09:38:52 17° SSW 09:39:49 18° S 09:42:25 10° SE visible
11 Apr 2.5 09:09:25 17° SSE 09:09:25 17° SSE 09:11:18 10° SE visible
12 Apr 3.3 08:39:58 11° SE 08:39:58 11° SE 08:40:09 10° SE visible
12 Apr 2.4 10:14:12 10° SW 10:16:44 17° S 10:19:15 10° SE visible
13 Apr 2.3 09:44:36 16° SSW 09:45:34 17° S 09:48:06 10° SE visible
14 Apr 2.5 09:15:15 16° S 09:15:15 16° S 09:16:57 10° SE visible
